Regional Weather Roundup
Issued by NWS Kansas City/Pleasant Hill, MO

Home | Current Version | Previous Version | Graphics & Text | Print | Product List | Glossary Off
Versions: 1 2 3 4 5 6 7 8 9 10 11 12 13 14 15 16 17 18 19 20 21 22 23 24 25 26 27 28 29 30 31 32 33 34 35 36 37 38 39 40 41 42 43 44 45 46 47 48 49 50

968
ASUS43 KEAX 290610
RWREAX

WEATHER ROUNDUP FOR EASTERN KANSAS AND NORTHWEST MISSOURI
NATIONAL WEATHER SERVICE KANSAS CITY/PLEASANT HILL MO
100 AM CDT SAT APR 29 2017

KSZ040-057-103>105-MOZ028-029-037-043-290700-
...KANSAS CITY METROPOLITAN AREA...

CITY           SKY/WX    TMP DP  RH WIND       PRES   REMARKS
K.C. INTL      FOG       44  43  96 N15       29.88F VSB 1
6HR MIN TEMP:  44; 6HR MAX TEMP:  49; 6HR PCP: TRACE;

K.C. DOWNTOWN  CLOUDY    47  44  90 N13       29.87F
6HR MIN TEMP:  47; 6HR MAX TEMP:  55;

LEES SUMMIT    CLOUDY    45  45 100 NE12      29.87F FOG
6HR MIN TEMP:  45; 6HR MAX TEMP:  60;

OLATHE - IXD   FOG       44  44 100 N17       29.87S VSB 3/4
6HR MIN TEMP:  45; 6HR MAX TEMP:  64;

OLATHE - OJC   CLOUDY    44  44 100 N15       29.87F FOG
6HR MIN TEMP:  44; 6HR MAX TEMP:  63;

LAWRENCE       CLOUDY    45  45 100 NW16      29.88F FOG

$$

MOZ001>008-011>017-020>025-030>033-038>040-044>046-053-054-290700-
...NORTHERN AND CENTRAL MISSOURI...

CITY           SKY/WX    TMP DP  RH WIND       PRES   REMARKS
ST. JOSEPH     CLOUDY    45  44  97 N16       29.95F
6HR MIN TEMP:  44; 6HR MAX TEMP:  45;

MOSBY          CLOUDY    45  45 100 N12       29.89F
WHITEMAN AFB   CLOUDY    48  48 100 N13       29.86R FOG
6HR MIN TEMP:  48; 6HR MAX TEMP:  61;

CLINTON        FOG       52  52 100 N12       29.88R VSB 1
SEDALIA        FOG       53  53 100 N14       29.88R VSB 1/2
6HR MIN TEMP:  53; 6HR MAX TEMP:  61;

WARSAW         NOT AVBL
CHILLICOTHE      N/A     45  44  97 N8G20     29.92F
6HR MIN TEMP:  45; 6HR MAX TEMP:  47;

KIRKSVILLE     CLOUDY    45  31  58 N15       29.94R HAZE
6HR MIN TEMP:  44; 6HR MAX TEMP:  48;


$$

MOZ041-047>049-056>058-063>065-088>090-097-290700-
...EASTERN AND SOUTHERN MISSOURI...

CITY           SKY/WX    TMP DP  RH WIND       PRES   REMARKS
ST. LOUIS INTL CLOUDY    59  56  89 E7        29.87R THUNDER FOG
6HR MIN TEMP:  58; 6HR MAX TEMP:  60;

SPIRIT OF STL  LGT RAIN  58  58 100 E8        29.86F FOG
COLUMBIA       CLOUDY    57  57 100 NE12      29.85R FOG
JEFFERSON CITY CLOUDY    61  57  87 E3        29.86R
ROLLA          LGT RAIN  58  58 100 NW7       29.85R VSB 3/4
OSAGE BEACH    TSTM      59  59 100 NE8       29.85R
SPRINGFIELD    LGT RAIN  62  61  96 NE13      29.78F
BRANSON        CLOUDY    63  63 100 NE8       29.74F
JOPLIN         LGT RAIN  63  60  90 NE14      29.80R
WEST PLAINS    CLOUDY    65  63  93 VRB5      29.79R THUNDER

$$

IAZ060-094-KSZ022-034>040-054-083-096-NEZ052-066-093-290700-
...KANSAS...SOUTHEAST NEBRASKA AND IOWA...

CITY           SKY/WX    TMP DP  RH WIND       PRES   REMARKS
TOPEKA         CLOUDY    45  45 100 N15G23    29.90F
6HR MIN TEMP:  45; 6HR MAX TEMP:  50;

MANHATTAN      CLOUDY    44  41  89 NE12      29.91F
EMPORIA        CLOUDY    45  45 100 N15       29.84F
CHANUTE        CLOUDY    52  51  97 NE16G24   29.80R FOG
WICHITA        CLOUDY    47  44  90 N25G32    29.76F
OMAHA          CLOUDY    44  37  76 N12       30.08S
LINCOLN        CLOUDY    43  39  86 N13       30.08R
FALLS CITY     CLOUDY    44  42  93 N12       29.97F
LAMONI         CLOUDY    43  41  93 NE17      29.97F
DES MOINES     CLOUDY    45  38  76 N15       30.04F

$$





USA.gov is the U.S. government's official web portal to all federal, state and local government web resources and services.